User: anonymous   Login
Location: Quaker Farms
(41.4276°N, 73.1557°W)
Time: 10:24:24
(UTC+00:00)
Language:

SR - Orbit

View from above orbital plane
View from above orbital plane
View from above satellite
View from above satellite

Ground track
Ground track

The orbit data is extracted from the following two-line orbital elements,

1 00046U 60007B   21165.67869420 -.00000012  00000-0  20771-4 0  9995
2 00046  66.6887 147.6863 0215320 222.6937 135.7269 14.49407309191603
Epoch (UTC): 14 June 2021 16:17:19
Eccentricity: 0.0215320
inclination: 66.6887°
perigee height: 574 km
apogee height: 880 km
right ascension of ascending node: 147.6863°
argument of perigee: 222.6937°
revolutions per day: 14.49407309
mean anomaly at epoch: 135.7269°
orbit number at epoch: 19160

The dashed part of the orbit path shows where the satellite is in the earth's shadow,  

DLR